TimePDT,TemperatureF,Dew PointF,Humidity,Sea Level PressureIn,VisibilityMPH,Wind Direction,Wind SpeedMPH,Gust SpeedMPH,PrecipitationIn,Events,Conditions,WindDirDegrees,DateUTC
12:41 AM,32.0,32.0,100,29.67,6.0,SSE,3.5,-,0.04,,Overcast,160,2013-04-08 07:41:00
12:56 AM,32.0,32.0,100,29.63,3.0,Calm,Calm,-,0.04,Snow,Light Snow,0,2013-04-08 07:56:00
1:07 AM,32.0,32.0,100,29.66,2.0,Calm,Calm,-,0.01,Snow,Light Snow,0,2013-04-08 08:07:00
1:39 AM,32.0,32.0,100,29.65,3.0,Variable,4.6,-,0.01,Snow,Light Snow,0,2013-04-08 08:39:00
1:49 AM,32.0,32.0,100,29.64,2.5,NNW,3.5,-,0.02,Snow,Light Snow,330,2013-04-08 08:49:00
1:56 AM,32.0,32.0,100,29.59,1.8,Calm,Calm,-,0.02,Snow,Light Snow,0,2013-04-08 08:56:00
2:03 AM,32.0,32.0,100,29.62,2.5,SE,3.5,-,0.00,Snow,Light Snow,130,2013-04-08 09:03:00
2:10 AM,32.0,32.0,100,29.63,3.0,Calm,Calm,-,0.00,Snow,Light Snow,0,2013-04-08 09:10:00
2:21 AM,32.0,30.2,93,29.63,4.0,NW,6.9,-,0.00,,Overcast,320,2013-04-08 09:21:00
2:43 AM,32.0,32.0,100,29.62,4.0,WNW,4.6,-,0.00,Snow,Light Snow,300,2013-04-08 09:43:00
2:51 AM,32.0,32.0,100,29.62,7.0,WNW,5.8,-,0.00,,Overcast,300,2013-04-08 09:51:00
2:56 AM,32.0,32.0,100,29.58,10.0,WNW,5.8,-,0.00,,Overcast,300,2013-04-08 09:56:00
3:31 AM,33.8,32.0,93,29.62,10.0,North,6.9,-,0.00,,Overcast,350,2013-04-08 10:31:00
3:56 AM,33.1,32.0,96,29.58,10.0,WNW,6.9,-,0.00,,Overcast,300,2013-04-08 10:56:00
4:31 AM,33.8,32.0,93,29.63,10.0,NW,6.9,-,0.00,Rain,Light Rain,310,2013-04-08 11:31:00
4:56 AM,34.0,33.1,96,29.59,7.0,North,6.9,-,0.01,Rain,Light Rain,350,2013-04-08 11:56:00
5:12 AM,33.8,33.8,100,29.64,10.0,NNW,4.6,-,0.00,Rain,Light Rain,340,2013-04-08 12:12:00
5:42 AM,33.8,32.0,93,29.64,7.0,NNW,21.9,28.8,0.00,Snow,Light Snow,340,2013-04-08 12:42:00
5:56 AM,33.1,30.9,92,29.61,4.0,NNW,19.6,26.5,0.00,Snow,Light Snow,340,2013-04-08 12:56:00
6:04 AM,33.8,30.2,87,29.65,2.0,NNW,21.9,31.1,0.01,Snow,Light Snow,340,2013-04-08 13:04:00
6:18 AM,33.8,30.2,87,29.66,6.0,NNW,19.6,27.6,0.01,Snow,Light Snow,330,2013-04-08 13:18:00
6:56 AM,33.1,30.0,89,29.66,7.0,North,20.7,28.8,0.01,,Overcast,350,2013-04-08 13:56:00
7:56 AM,34.0,28.9,82,29.73,10.0,North,19.6,28.8,0.00,,Overcast,350,2013-04-08 14:56:00
8:56 AM,35.1,25.0,67,29.78,10.0,North,25.3,33.4,N/A,,Overcast,350,2013-04-08 15:56:00
9:56 AM,39.0,26.1,60,29.81,10.0,North,24.2,34.5,N/A,,Scattered Clouds,350,2013-04-08 16:56:00
10:56 AM,41.0,27.0,57,29.82,10.0,NNW,26.5,39.1,N/A,,Partly Cloudy,330,2013-04-08 17:56:00
11:56 AM,44.1,26.1,49,29.82,10.0,NNW,21.9,34.5,N/A,,Clear,340,2013-04-08 18:56:00
12:56 PM,46.0,26.1,46,29.82,10.0,NNW,25.3,38.0,N/A,,Scattered Clouds,330,2013-04-08 19:56:00
1:56 PM,46.9,24.1,41,29.81,10.0,NW,20.7,29.9,N/A,,Partly Cloudy,320,2013-04-08 20:56:00
2:56 PM,45.0,21.0,39,29.82,10.0,North,19.6,28.8,N/A,,Mostly Cloudy,350,2013-04-08 21:56:00
3:56 PM,45.0,19.0,36,29.83,10.0,NNW,19.6,32.2,N/A,,Overcast,330,2013-04-08 22:56:00
4:56 PM,44.1,21.0,40,29.84,10.0,NNW,17.3,33.4,N/A,,Overcast,330,2013-04-08 23:56:00
5:56 PM,46.0,19.0,34,29.85,10.0,North,17.3,25.3,N/A,,Overcast,350,2013-04-09 00:56:00
6:56 PM,43.0,19.0,38,29.89,8.0,NNW,28.8,39.1,N/A,,Overcast,340,2013-04-09 01:56:00
7:56 PM,39.9,21.9,49,29.92,10.0,NNW,11.5,-,N/A,,Scattered Clouds,340,2013-04-09 02:56:00
8:56 PM,37.0,21.9,54,29.96,10.0,NNW,12.7,-,N/A,,Clear,330,2013-04-09 03:56:00
9:56 PM,35.1,26.1,70,29.99,10.0,NNW,13.8,-,N/A,,Scattered Clouds,330,2013-04-09 04:56:00
10:56 PM,32.0,26.1,79,30.00,10.0,West,5.8,-,N/A,,Clear,280,2013-04-09 05:56:00
11:56 PM,34.0,25.0,70,30.00,10.0,WNW,6.9,-,N/A,,Clear,300,2013-04-09 06:56:00